Starlink 31904

operational
NORAD ID: 59657 Int'l Des: 2024-084 Owner: SPXS Country: US Constellation: starlink
LEOCIRCULAR

About Starlink 31904

Description loading...

Live Position

Loading 3D Globe...

Upcoming Passes

Altitude History

Altitude vs Time

uPlot chart will show altitude changes over time

Two-Line Element Set

1 59657U 24084D 25259.18161413 .00002586 00000-0 10344-3 0 9994
2 59657 43.0015 307.3932 0000659 272.9843 87.0933 15.27586161 77689
Epoch: Sep 16, 2025 • Age: 28 hours

Current Status

Altitude 482.1 km
Velocity 7.63 km/s
Sub-Earth Point 12.42°N, 172.5°W
Launch Date May 6, 2024
Age 1.3 years
Type internet

Technical Details

Classification Payload
Mass 730.00 kg
Dry Mass 700.00 kg
Total Mass 730.00 kg
Length 0.30 m
Diameter 4.10 m
Span 29.00 m
Shape Box + pan
Manufacturer SPXS
Bus Type Starlink V2M
Phase Status In Orbit
Owner/State SPXS/US

Large Constellations

Loading constellations...